ONEWEB-0635, 56076

Orbit data source: Space-Track

ONEWEB-0635, 56076 is a payload satellite owned by One Web (NAA) (UK) in LEO that was launched on Sun, 26 Mar 2023 UTC via a LVM3 launch vehicle from the Sirharikota (SRI). Payload-class satellites include a variety of spacecraft equipped with specific instruments for various scientific and technological missions. These include communications satellites like Starlink; space stations such as the ISS; scientific satellites like the Hubble; Earth observation satellites from companies like Planet Labs, Umbra, and HawkEye 360; GPS; miniature CubeSats for education and research; and military/defense satellites.

Loading next visibility...
Identifier
56076, 2023-043AG
Orbit
LEO
Country
Flag of UKUK
Related business
Manufacturer
One Web
Mission
Operational Commercial Communications
Bus & Motor
ARROW, Unknown motor
Mass
148 kg wet, ~140 kg dry
Launch date (UTC)
2023-03-26 (2 years ago)
Launch vehicle
LVM3
Launch site
Sirharikota (SRI)
Object type
Payload
Rocket body
Debris
Shape & HBR
Trap Box + 2 Pan, 2.5 m
Radar Cross Section
2.032 m², Medium (>0.1 m² and < 1m²)

Expand to show TLE details & history
Last TLE update: 15 hours ago

TLE from 15 hours ago
0 ONEWEB-0635
1 56076U 23043AG  25250.21088749 -.00000085  00000-0 -25943-3 0  9990
2 56076  87.9034 315.6569 0002080  90.3959 269.7410 13.15548441119227
Epoch: 2025-09-07T05:03Z
TLE epoch observation values (Epoch: 2025-09-07T05:03:40.679Z)
Latitude
0.00003°
Longitude
-106.79622°
Altitude
1,204.674 km
Speed
7.252 km/s
True Right ascension
21h 02m 37s
True Declination
0° 00' 00"
Sunlit
Object was in full shadow at epoch
Visualization orbit readout
Latitude
Unknown
Longitude
Unknown
Altitude
Unknown
Speed
Unknown
Apparent Right ascension
Unknown
Apparent Declination
Unknown
Sunlit
N/A
Visualization observer readout
Local Sidereal Time
11:46:09
Azimuth
Unknown
Elevation
Unknown
Doppler factor
Unknown
Orbital elements
Apogee altitude
1,200.459 km
Perigee altitude
1,197.307 km
Semi-major axis
7,577.02 km
Eccentricity
0.00021
Inclination
87.9034°
RAAN
315.6569°
Arg. of periapsis
90.3959°
True anomaly
269.71717°
Mean anomaly
269.741°
Eccentric anomaly
269.72908°
Mean motion
3.29075 °/min
Orbital period
109.4 mins
BSTAR
-0.00025943
Loading maneuver chart data...
Computing Atmospheric mass density...
Loading historical data...
Loading historical data...
Loading historical data...
Loading historical data...
Loading historical data...
Loading historical data...
Loading historical data...

Documentation

Showing up to 5 results
|